Time,TemperatureF,DewpointF,PressureIn,WindDirection,WindDirectionDegrees,WindSpeedMPH,WindSpeedGustMPH,Humidity,HourlyPrecipIn,Conditions,Clouds,dailyrainin,SoftwareType,DateUTC
2015-07-07 00:02:00,66.0,60.7,30.42,SE,135,0.0,0.0,83,0.00,CLR,FEW,0.00,WeatherDisplay:10.37,2015-07-07 04:02:00,
2015-07-07 00:07:00,65.8,60.5,30.42,SE,135,0.0,0.0,83,0.00,CLR,FEW,0.00,WeatherDisplay:10.37,2015-07-07 04:07:00,
2015-07-07 00:12:00,65.8,60.8,30.42,SE,135,0.0,0.0,84,0.00,CLR,FEW,0.00,WeatherDisplay:10.37,2015-07-07 04:12:00,
2015-07-07 00:17:00,65.7,60.7,30.42,SE,135,0.0,0.0,84,0.00,CLR,FEW,0.00,WeatherDisplay:10.37,2015-07-07 04:17:00,
2015-07-07 00:22:00,65.7,60.7,30.42,SE,135,0.0,0.0,84,0.00,CLR,FEW,0.00,WeatherDisplay:10.37,2015-07-07 04:22:00,
2015-07-07 00:27:00,65.6,60.7,30.41,SE,135,0.0,0.0,84,0.00,CLR,FEW,0.00,WeatherDisplay:10.37,2015-07-07 04:27:00,
2015-07-07 00:32:00,65.6,60.6,30.41,SE,135,0.0,0.0,84,0.00,CLR,FEW,0.00,WeatherDisplay:10.37,2015-07-07 04:32:00,
2015-07-07 00:37:00,65.5,60.5,30.41,SE,135,0.0,0.0,84,0.00,CLR,FEW,0.00,WeatherDisplay:10.37,2015-07-07 04:37:00,
2015-07-07 00:42:00,65.5,60.5,30.41,SE,135,0.0,0.0,84,0.00,CLR,FEW,0.00,WeatherDisplay:10.37,2015-07-07 04:42:00,
2015-07-07 00:47:00,65.5,60.6,30.41,SE,135,0.0,0.0,84,0.00,CLR,FEW,0.00,WeatherDisplay:10.37,2015-07-07 04:47:00,
2015-07-07 00:52:00,65.6,60.6,30.41,SE,135,0.0,0.0,84,0.00,CLR,FEW,0.00,WeatherDisplay:10.37,2015-07-07 04:52:00,
2015-07-07 00:57:00,65.7,60.7,30.41,SE,135,0.0,0.0,84,0.00,CLR,FEW,0.00,WeatherDisplay:10.37,2015-07-07 04:57:00,
2015-07-07 01:02:00,65.7,60.8,30.41,SE,135,0.0,0.0,84,0.00,CLR,FEW,0.00,WeatherDisplay:10.37,2015-07-07 05:02:00,
2015-07-07 01:07:00,65.8,60.8,30.41,SE,135,0.0,0.0,84,0.00,CLR,FEW,0.00,WeatherDisplay:10.37,2015-07-07 05:07:00,
2015-07-07 01:12:00,65.9,60.9,30.41,SE,135,0.0,0.0,84,0.00,CLR,FEW,0.00,WeatherDisplay:10.37,2015-07-07 05:12:00,
2015-07-07 01:17:00,65.9,60.9,30.41,SE,135,0.0,0.0,84,0.00,CLR,FEW,0.00,WeatherDisplay:10.37,2015-07-07 05:17:00,
2015-07-07 01:22:00,65.9,60.9,30.41,SE,135,0.0,0.0,84,0.00,CLR,FEW,0.00,WeatherDisplay:10.37,2015-07-07 05:22:00,
2015-07-07 01:27:00,66.0,61.0,30.41,SE,135,0.0,0.0,84,0.00,CLR,FEW,0.00,WeatherDisplay:10.37,2015-07-07 05:27:00,
2015-07-07 01:32:00,66.2,61.2,30.41,SE,135,0.0,0.0,84,0.00,CLR,FEW,0.00,WeatherDisplay:10.37,2015-07-07 05:32:00,
2015-07-07 01:37:00,66.2,60.9,30.41,SE,135,0.0,0.0,83,0.00,BKN,FEW,0.00,WeatherDisplay:10.37,2015-07-07 05:37:00,
2015-07-07 01:42:00,66.2,61.2,30.41,SE,135,0.0,0.0,84,0.00,BKN,FEW,0.00,WeatherDisplay:10.37,2015-07-07 05:42:00,
2015-07-07 01:47:00,66.3,61.3,30.41,SE,135,0.0,0.0,84,0.00,BKN,FEW,0.00,WeatherDisplay:10.37,2015-07-07 05:47:00,
2015-07-07 01:52:00,66.3,61.3,30.41,SE,135,0.0,0.0,84,0.00,BKN,FEW,0.00,WeatherDisplay:10.37,2015-07-07 05:52:00,
2015-07-07 01:57:00,66.3,61.3,30.41,SE,135,0.0,0.0,84,0.00,BKN,FEW,0.00,WeatherDisplay:10.37,2015-07-07 05:57:00,
2015-07-07 02:02:00,66.4,61.1,30.41,SE,135,0.0,0.0,83,0.00,BKN,FEW,0.00,WeatherDisplay:10.37,2015-07-07 06:02:00,
2015-07-07 02:07:00,66.5,61.2,30.41,SE,135,0.0,0.0,83,0.00,BKN,FEW,0.00,WeatherDisplay:10.37,2015-07-07 06:07:00,
2015-07-07 02:12:00,66.5,61.2,30.41,SE,135,0.0,0.0,83,0.00,BKN,FEW,0.00,WeatherDisplay:10.37,2015-07-07 06:12:00,
2015-07-07 02:17:00,66.6,61.3,30.41,SE,135,0.0,0.0,83,0.00,OVC,FEW,0.00,WeatherDisplay:10.37,2015-07-07 06:17:00,
2015-07-07 02:22:00,66.7,61.3,30.40,SE,135,0.0,0.0,83,0.00,OVC,FEW,0.00,WeatherDisplay:10.37,2015-07-07 06:22:00,
2015-07-07 02:27:00,66.7,61.4,30.40,SE,135,0.0,0.0,83,0.00,OVC,FEW,0.00,WeatherDisplay:10.37,2015-07-07 06:27:00,
2015-07-07 02:32:00,66.7,61.4,30.40,SE,135,0.0,0.0,83,0.00,OVC,FEW,0.00,WeatherDisplay:10.37,2015-07-07 06:32:00,
2015-07-07 02:37:00,66.8,61.5,30.40,SE,135,0.0,0.0,83,0.00,OVC,FEW,0.00,WeatherDisplay:10.37,2015-07-07 06:37:00,
2015-07-07 02:42:00,66.8,61.5,30.40,SE,135,0.0,0.0,83,0.00,OVC,FEW,0.00,WeatherDisplay:10.37,2015-07-07 06:42:00,
2015-07-07 02:47:00,66.8,61.5,30.39,SE,135,0.0,0.0,83,0.00,OVC,FEW,0.00,WeatherDisplay:10.37,2015-07-07 06:47:00,
2015-07-07 02:52:00,67.0,61.7,30.39,SE,135,0.0,0.0,83,0.00,OVC,FEW,0.00,WeatherDisplay:10.37,2015-07-07 06:52:00,
2015-07-07 02:57:00,67.0,61.7,30.39,SE,135,0.0,0.0,83,0.00,OVC,FEW,0.00,WeatherDisplay:10.37,2015-07-07 06:57:00,
2015-07-07 03:02:00,67.0,61.7,30.39,SE,135,0.0,0.0,83,0.00,OVC,FEW,0.00,WeatherDisplay:10.37,2015-07-07 07:02:00,
2015-07-07 03:07:00,67.0,61.7,30.39,SE,135,0.0,0.0,83,0.00,OVC,FEW,0.00,WeatherDisplay:10.37,2015-07-07 07:07:00,
2015-07-07 03:12:00,67.0,61.7,30.39,SE,135,0.0,0.0,83,0.00,OVC,FEW,0.00,WeatherDisplay:10.37,2015-07-07 07:12:00,
2015-07-07 03:17:00,67.0,61.7,30.39,SE,135,0.0,0.0,83,0.00,OVC,FEW,0.00,WeatherDisplay:10.37,2015-07-07 07:17:00,
2015-07-07 03:22:00,66.9,61.6,30.39,SE,135,0.0,0.0,83,0.00,OVC,FEW,0.00,WeatherDisplay:10.37,2015-07-07 07:22:00,
2015-07-07 03:27:00,66.9,61.6,30.39,SE,135,0.0,0.0,83,0.00,OVC,FEW,0.00,WeatherDisplay:10.37,2015-07-07 07:27:00,
2015-07-07 03:32:00,66.9,61.6,30.39,SE,135,0.0,0.0,83,0.00,OVC,FEW,0.00,WeatherDisplay:10.37,2015-07-07 07:32:00,
2015-07-07 03:37:00,67.0,61.7,30.39,SE,135,0.0,0.0,83,0.00,OVC,FEW,0.00,WeatherDisplay:10.37,2015-07-07 07:37:00,
2015-07-07 03:42:00,67.0,61.7,30.39,SE,135,0.0,0.0,83,0.00,OVC,FEW,0.00,WeatherDisplay:10.37,2015-07-07 07:42:00,
2015-07-07 03:47:00,67.0,61.7,30.39,SE,135,0.0,0.0,83,0.00,OVC,FEW,0.00,WeatherDisplay:10.37,2015-07-07 07:47:00,
2015-07-07 03:52:00,67.1,61.7,30.39,SE,135,0.0,0.0,83,0.00,OVC,FEW,0.00,WeatherDisplay:10.37,2015-07-07 07:52:00,
2015-07-07 03:57:00,67.1,61.8,30.38,SE,135,0.0,0.0,83,0.00,OVC,FEW,0.00,WeatherDisplay:10.37,2015-07-07 07:57:00,
2015-07-07 04:02:00,67.1,61.8,30.39,SE,135,0.0,0.0,83,0.00,OVC,FEW,0.00,WeatherDisplay:10.37,2015-07-07 08:02:00,
2015-07-07 04:07:00,67.1,61.8,30.39,SE,135,0.0,0.0,83,0.00,OVC,FEW,0.00,WeatherDisplay:10.37,2015-07-07 08:07:00,
2015-07-07 04:12:00,67.1,61.8,30.38,SE,135,0.0,0.0,83,0.00,OVC,FEW,0.00,WeatherDisplay:10.37,2015-07-07 08:12:00,
2015-07-07 04:17:00,67.1,61.8,30.39,SE,135,0.0,0.0,83,0.00,OVC,FEW,0.00,WeatherDisplay:10.37,2015-07-07 08:17:00,
2015-07-07 04:22:00,67.2,61.9,30.39,SE,135,0.0,0.0,83,0.00,OVC,FEW,0.00,WeatherDisplay:10.37,2015-07-07 08:22:00,
2015-07-07 04:27:00,67.2,61.9,30.39,SE,135,0.0,0.0,83,0.00,OVC,FEW,0.00,WeatherDisplay:10.37,2015-07-07 08:27:00,
2015-07-07 04:32:00,67.1,61.8,30.39,SE,135,0.0,0.0,83,0.00,OVC,FEW,0.00,WeatherDisplay:10.37,2015-07-07 08:32:00,
2015-07-07 04:37:00,67.1,61.8,30.39,SE,135,0.0,0.0,83,0.00,OVC,FEW,0.00,WeatherDisplay:10.37,2015-07-07 08:37:00,
2015-07-07 04:42:00,67.1,61.7,30.39,SE,135,0.0,0.0,83,0.00,OVC,FEW,0.00,WeatherDisplay:10.37,2015-07-07 08:42:00,
2015-07-07 04:47:00,67.0,62.0,30.39,SE,135,0.0,0.0,84,0.00,OVC,FEW,0.00,WeatherDisplay:10.37,2015-07-07 08:47:00,
2015-07-07 04:52:00,67.1,62.1,30.39,SE,135,0.0,0.0,84,0.00,OVC,FEW,0.00,WeatherDisplay:10.37,2015-07-07 08:52:00,
2015-07-07 04:57:00,67.1,62.1,30.39,SE,135,0.0,0.0,84,0.00,OVC,FEW,0.00,WeatherDisplay:10.37,2015-07-07 08:57:00,
2015-07-07 05:02:00,67.3,62.3,30.39,SE,135,0.0,0.0,84,0.00,OVC,FEW,0.00,WeatherDisplay:10.37,2015-07-07 09:02:00,
2015-07-07 05:07:00,67.3,62.3,30.39,SE,135,0.0,0.0,84,0.00,OVC,FEW,0.00,WeatherDisplay:10.37,2015-07-07 09:07:00,
2015-07-07 05:12:00,67.4,62.4,30.39,SE,135,0.0,0.0,84,0.00,OVC,FEW,0.00,WeatherDisplay:10.37,2015-07-07 09:12:00,
2015-07-07 05:17:00,67.5,62.5,30.39,SE,135,0.0,0.0,84,0.00,OVC,FEW,0.00,WeatherDisplay:10.37,2015-07-07 09:17:00,
2015-07-07 05:22:00,67.5,62.5,30.39,SE,135,0.0,0.0,84,0.00,OVC,FEW,0.00,WeatherDisplay:10.37,2015-07-07 09:22:00,
2015-07-07 05:27:00,67.5,62.5,30.39,SE,135,0.0,0.0,84,0.00,OVC,FEW,0.00,WeatherDisplay:10.37,2015-07-07 09:27:00,
2015-07-07 05:32:00,67.6,62.6,30.39,SE,135,0.0,0.0,84,0.00,OVC,FEW,0.00,WeatherDisplay:10.37,2015-07-07 09:32:00,
2015-07-07 05:37:00,67.5,62.5,30.39,SE,135,0.0,0.0,84,0.00,OVC,FEW,0.00,WeatherDisplay:10.37,2015-07-07 09:37:00,
2015-07-07 05:42:00,67.6,62.6,30.39,SE,135,0.0,0.0,84,0.00,OVC,FEW,0.00,WeatherDisplay:10.37,2015-07-07 09:42:00,
2015-07-07 05:47:00,67.6,62.9,30.39,SE,135,0.0,0.0,85,0.00,OVC,FEW,0.00,WeatherDisplay:10.37,2015-07-07 09:47:00,
2015-07-07 05:52:00,67.5,62.9,30.40,SE,135,0.0,0.0,85,0.00,OVC,FEW,0.00,WeatherDisplay:10.37,2015-07-07 09:52:00,
2015-07-07 05:57:00,67.5,62.8,30.39,SE,135,0.0,0.0,85,0.00,OVC,FEW,0.00,WeatherDisplay:10.37,2015-07-07 09:57:00,
2015-07-07 06:02:00,67.5,62.8,30.39,SE,135,0.0,0.0,85,0.00,OVC,FEW,0.00,WeatherDisplay:10.37,2015-07-07 10:02:00,
2015-07-07 06:07:00,67.5,62.8,30.39,SE,135,0.0,0.0,85,0.00,OVC,FEW,0.00,WeatherDisplay:10.37,2015-07-07 10:07:00,
2015-07-07 06:12:00,67.5,62.8,30.39,SE,135,0.0,0.0,85,0.00,OVC,FEW,0.00,WeatherDisplay:10.37,2015-07-07 10:12:00,
2015-07-07 06:17:00,67.5,62.8,30.39,SE,135,0.0,0.0,85,0.00,OVC,FEW,0.00,WeatherDisplay:10.37,2015-07-07 10:17:00,
2015-07-07 06:22:00,67.5,62.8,30.39,SE,135,0.0,0.0,85,0.00,OVC,FEW,0.00,WeatherDisplay:10.37,2015-07-07 10:22:00,
2015-07-07 06:27:00,67.5,63.2,30.39,SE,135,0.0,0.0,86,0.00,OVC,FEW,0.00,WeatherDisplay:10.37,2015-07-07 10:27:00,
2015-07-07 06:32:00,67.5,63.2,30.39,SE,135,0.0,0.0,86,0.00,OVC,FEW,0.00,WeatherDisplay:10.37,2015-07-07 10:32:00,
2015-07-07 06:37:00,67.6,63.3,30.39,SE,135,0.0,0.0,86,0.00,OVC,FEW,0.00,WeatherDisplay:10.37,2015-07-07 10:37:00,
2015-07-07 06:42:00,67.7,63.4,30.39,SE,135,0.0,0.0,86,0.00,OVC,FEW,0.00,WeatherDisplay:10.37,2015-07-07 10:42:00,
2015-07-07 06:47:00,67.8,63.5,30.39,SE,135,0.0,0.0,86,0.00,OVC,FEW,0.00,WeatherDisplay:10.37,2015-07-07 10:47:00,
2015-07-07 06:52:00,67.9,63.5,30.39,SE,135,0.0,0.0,86,0.00,OVC,FEW,0.00,WeatherDisplay:10.37,2015-07-07 10:52:00,
2015-07-07 06:57:00,67.9,63.6,30.39,SE,135,0.0,0.0,86,0.00,OVC,FEW,0.00,WeatherDisplay:10.37,2015-07-07 10:57:00,
2015-07-07 07:02:00,67.9,63.6,30.39,SE,135,0.0,0.0,86,0.00,OVC,FEW,0.00,WeatherDisplay:10.37,2015-07-07 11:02:00,
2015-07-07 07:07:00,68.0,63.7,30.39,SE,135,0.0,0.0,86,0.00,OVC,FEW,0.00,WeatherDisplay:10.37,2015-07-07 11:07:00,
2015-07-07 07:12:00,68.1,63.8,30.39,SE,135,0.0,0.0,86,0.00,OVC,FEW,0.00,WeatherDisplay:10.37,2015-07-07 11:12:00,
2015-07-07 07:17:00,68.3,63.9,30.39,SE,135,0.0,0.0,86,0.00,OVC,FEW,0.00,WeatherDisplay:10.37,2015-07-07 11:17:00,
2015-07-07 07:22:00,68.4,64.0,30.39,SE,135,0.0,0.0,86,0.00,OVC,FEW,0.00,WeatherDisplay:10.37,2015-07-07 11:22:00,
2015-07-07 07:27:00,68.5,64.1,30.39,SE,135,0.0,0.0,86,0.00,OVC,FEW,0.00,WeatherDisplay:10.37,2015-07-07 11:27:00,
2015-07-07 07:32:00,68.6,64.2,30.39,SE,135,0.0,0.0,86,0.00,OVC,FEW,0.00,WeatherDisplay:10.37,2015-07-07 11:32:00,
2015-07-07 07:37:00,68.8,64.4,30.39,SE,135,0.0,0.0,86,0.00,OVC,FEW,0.00,WeatherDisplay:10.37,2015-07-07 11:37:00,
2015-07-07 07:42:00,69.0,64.6,30.39,SE,135,0.0,0.0,86,0.00,OVC,FEW,0.00,WeatherDisplay:10.37,2015-07-07 11:42:00,
2015-07-07 07:47:00,69.1,64.7,30.39,SE,136,0.0,0.0,86,0.00,OVC,FEW,0.00,WeatherDisplay:10.37,2015-07-07 11:47:00,
2015-07-07 07:52:00,69.2,64.8,30.39,SE,136,0.0,0.0,86,0.00,OVC,FEW,0.00,WeatherDisplay:10.37,2015-07-07 11:52:00,
2015-07-07 07:57:00,69.4,65.0,30.39,SE,136,0.0,0.0,86,0.00,OVC,FEW,0.00,WeatherDisplay:10.37,2015-07-07 11:57:00,
2015-07-07 08:02:00,69.5,65.1,30.39,SE,136,0.0,0.0,86,0.00,OVC,FEW,0.00,WeatherDisplay:10.37,2015-07-07 12:02:00,
2015-07-07 08:07:00,69.5,65.1,30.39,SSE,159,0.0,0.0,86,0.00,OVC,FEW,0.00,WeatherDisplay:10.37,2015-07-07 12:07:00,
2015-07-07 08:12:00,69.7,64.9,30.39,SSE,152,0.0,1.0,85,0.00,OVC,FEW,0.00,WeatherDisplay:10.37,2015-07-07 12:12:00,
2015-07-07 08:17:00,69.8,65.1,30.39,South,174,0.0,1.0,85,0.00,OVC,FEW,0.00,WeatherDisplay:10.37,2015-07-07 12:17:00,
2015-07-07 08:22:00,70.2,65.5,30.39,South,190,0.0,3.0,85,0.00,OVC,FEW,0.00,WeatherDisplay:10.37,2015-07-07 12:22:00,
2015-07-07 08:27:00,70.6,65.9,30.39,South,184,0.0,3.0,85,0.00,OVC,FEW,0.00,WeatherDisplay:10.37,2015-07-07 12:27:00,
2015-07-07 08:32:00,71.0,65.9,30.39,South,183,0.0,4.0,84,0.00,OVC,FEW,0.00,WeatherDisplay:10.37,2015-07-07 12:32:00,
2015-07-07 08:37:00,71.3,66.2,30.39,South,171,0.0,4.0,84,0.00,OVC,FEW,0.00,WeatherDisplay:10.37,2015-07-07 12:37:00,
2015-07-07 08:42:00,71.4,65.9,30.39,SSE,147,0.0,0.0,83,0.00,OVC,FEW,0.00,WeatherDisplay:10.37,2015-07-07 12:42:00,
2015-07-07 08:47:00,71.6,66.5,30.39,SE,138,0.0,2.0,84,0.00,OVC,FEW,0.00,WeatherDisplay:10.37,2015-07-07 12:47:00,
2015-07-07 08:52:00,71.6,66.2,30.39,SSE,151,0.0,3.0,83,0.00,OVC,FEW,0.00,WeatherDisplay:10.37,2015-07-07 12:52:00,
2015-07-07 08:57:00,71.6,65.8,30.39,SSE,163,0.0,3.0,82,0.00,OVC,FEW,0.00,WeatherDisplay:10.37,2015-07-07 12:57:00,
2015-07-07 09:02:00,71.9,66.5,30.39,SSE,162,0.0,0.0,83,0.00,OVC,FEW,0.00,WeatherDisplay:10.37,2015-07-07 13:02:00,
2015-07-07 09:07:00,71.9,66.1,30.39,SSE,164,0.0,1.0,82,0.00,OVC,FEW,0.00,WeatherDisplay:10.37,2015-07-07 13:07:00,
2015-07-07 09:12:00,72.0,66.2,30.39,SSE,164,0.0,0.0,82,0.00,OVC,FEW,0.00,WeatherDisplay:10.37,2015-07-07 13:12:00,
2015-07-07 09:17:00,72.3,66.8,30.39,SSE,163,0.0,2.0,83,0.00,OVC,FEW,0.00,WeatherDisplay:10.37,2015-07-07 13:17:00,
2015-07-07 09:22:00,72.4,67.0,30.39,South,172,0.0,2.0,83,0.00,OVC,FEW,0.00,WeatherDisplay:10.37,2015-07-07 13:22:00,
2015-07-07 09:27:00,72.5,67.0,30.39,South,177,0.0,2.0,83,0.00,OVC,FEW,0.00,WeatherDisplay:10.37,2015-07-07 13:27:00,
2015-07-07 09:32:00,72.5,66.0,30.39,South,175,0.0,1.0,80,0.00,OVC,FEW,0.00,WeatherDisplay:10.37,2015-07-07 13:32:00,
2015-07-07 09:37:00,72.8,67.0,30.39,South,178,0.0,1.0,82,0.00,OVC,FEW,0.00,WeatherDisplay:10.37,2015-07-07 13:37:00,
2015-07-07 09:42:00,73.1,67.2,30.39,South,174,0.0,0.0,82,0.00,OVC,FEW,0.00,WeatherDisplay:10.37,2015-07-07 13:42:00,
2015-07-07 09:47:00,73.4,66.8,30.39,South,171,0.0,5.0,80,0.00,OVC,FEW,0.00,WeatherDisplay:10.37,2015-07-07 13:47:00,
2015-07-07 09:52:00,73.6,67.4,30.39,South,176,0.0,1.0,81,0.00,OVC,FEW,0.00,WeatherDisplay:10.37,2015-07-07 13:52:00,
2015-07-07 09:57:00,73.9,67.3,30.39,South,177,0.0,2.0,80,0.00,OVC,FEW,0.00,WeatherDisplay:10.37,2015-07-07 13:57:00,
2015-07-07 10:02:00,74.0,67.1,30.39,South,177,0.0,3.0,79,0.00,OVC,FEW,0.00,WeatherDisplay:10.37,2015-07-07 14:02:00,
2015-07-07 10:07:00,74.0,67.0,30.38,WSW,242,0.0,1.0,79,0.00,OVC,FEW,0.00,WeatherDisplay:10.37,2015-07-07 14:07:00,
2015-07-07 10:12:00,73.9,67.0,30.38,WSW,243,0.0,0.0,79,0.00,OVC,FEW,0.00,WeatherDisplay:10.37,2015-07-07 14:12:00,
2015-07-07 10:22:00,74.4,67.5,30.38,South,178,0.0,1.0,79,0.00,BKN,FEW,0.00,WeatherDisplay:10.37,2015-07-07 14:22:00,
2015-07-07 10:27:00,74.8,68.2,30.38,South,169,0.0,1.0,80,0.00,BKN,FEW,0.00,WeatherDisplay:10.37,2015-07-07 14:27:00,
2015-07-07 10:32:00,74.9,67.6,30.38,South,171,0.0,4.0,78,0.00,BKN,FEW,0.00,WeatherDisplay:10.37,2015-07-07 14:32:00,
2015-07-07 10:37:00,75.2,68.2,30.38,SSE,168,0.0,1.0,79,0.00,BKN,FEW,0.00,WeatherDisplay:10.37,2015-07-07 14:37:00,
2015-07-07 10:42:00,75.8,68.0,30.38,SSE,168,0.0,3.0,77,0.00,BKN,FEW,0.00,WeatherDisplay:10.37,2015-07-07 14:42:00,
2015-07-07 10:47:00,76.4,68.2,30.38,SSE,157,0.0,2.0,76,0.00,OVC,FEW,0.00,WeatherDisplay:10.37,2015-07-07 14:47:00,
2015-07-07 10:52:00,76.9,68.8,30.38,SSE,168,2.0,6.0,76,0.00,OVC,FEW,0.00,WeatherDisplay:10.37,2015-07-07 14:52:00,
2015-07-07 10:57:00,77.4,68.5,30.37,South,170,0.0,2.0,74,0.00,OVC,FEW,0.00,WeatherDisplay:10.37,2015-07-07 14:57:00,
2015-07-07 11:02:00,77.4,68.5,30.37,South,175,0.0,6.0,74,0.00,OVC,FEW,0.00,WeatherDisplay:10.37,2015-07-07 15:02:00,
2015-07-07 11:07:00,77.3,68.8,30.37,SSW,197,3.5,3.5,75,0.00,OVC,FEW,0.00,WeatherDisplay:10.37,2015-07-07 15:07:00,
2015-07-07 11:12:00,77.3,68.4,30.37,SE,138,2.3,2.3,74,0.00,OVC,FEW,0.00,WeatherDisplay:10.37,2015-07-07 15:12:00,
2015-07-07 11:17:00,77.3,68.4,30.37,SSE,153,0.0,2.0,74,0.00,OVC,FEW,0.00,WeatherDisplay:10.37,2015-07-07 15:17:00,
2015-07-07 11:22:00,78.2,69.2,30.37,South,183,0.0,3.0,74,0.00,OVC,FEW,0.00,WeatherDisplay:10.37,2015-07-07 15:22:00,
2015-07-07 11:27:00,79.4,69.6,30.36,SE,124,5.8,5.8,72,0.00,OVC,FEW,0.00,WeatherDisplay:10.37,2015-07-07 15:27:00,
2015-07-07 11:32:00,79.9,70.1,30.36,SE,141,0.0,3.0,72,0.00,OVC,FEW,0.00,WeatherDisplay:10.37,2015-07-07 15:32:00,
2015-07-07 11:37:00,80.4,69.7,30.36,SSE,149,1.0,3.0,70,0.00,OVC,FEW,0.00,WeatherDisplay:10.37,2015-07-07 15:37:00,
2015-07-07 11:42:00,79.7,69.4,30.36,South,169,1.0,5.0,71,0.00,OVC,FEW,0.00,WeatherDisplay:10.37,2015-07-07 15:42:00,
2015-07-07 11:47:00,79.2,69.8,30.36,SSE,158,1.2,1.2,73,0.00,OVC,FEW,0.00,WeatherDisplay:10.37,2015-07-07 15:47:00,
2015-07-07 11:52:00,79.1,69.7,30.36,SSE,159,1.0,3.0,73,0.00,OVC,FEW,0.00,WeatherDisplay:10.37,2015-07-07 15:52:00,
2015-07-07 11:57:00,79.8,70.0,30.35,South,182,0.0,5.0,72,0.00,OVC,FEW,0.00,WeatherDisplay:10.37,2015-07-07 15:57:00,
2015-07-07 12:02:00,81.2,70.5,30.35,SSW,200,0.0,3.0,70,0.00,OVC,FEW,0.00,WeatherDisplay:10.37,2015-07-07 16:02:00,
2015-07-07 12:07:00,81.3,70.2,30.35,SE,133,2.0,6.0,69,0.00,BKN,FEW,0.00,WeatherDisplay:10.37,2015-07-07 16:07:00,
2015-07-07 12:12:00,81.4,69.8,30.35,SE,136,1.0,7.0,68,0.00,BKN,FEW,0.00,WeatherDisplay:10.37,2015-07-07 16:12:00,
2015-07-07 12:17:00,80.8,69.7,30.34,SE,141,1.0,6.0,69,0.00,BKN,FEW,0.00,WeatherDisplay:10.37,2015-07-07 16:17:00,
2015-07-07 12:18:00,80.6,69.9,30.35,SSE,156,5.8,5.8,70,0.00,BKN,FEW,0.00,WeatherDisplay:10.37,2015-07-07 16:18:00,
2015-07-07 12:23:00,80.5,70.2,30.34,SE,138,4.0,4.0,71,0.00,BKN,FEW,0.00,WeatherDisplay:10.37,2015-07-07 16:23:00,
2015-07-07 12:28:00,80.3,70.0,30.34,SW,215,8.1,8.1,71,0.00,BKN,FEW,0.00,WeatherDisplay:10.37,2015-07-07 16:28:00,
2015-07-07 12:33:00,81.5,70.3,30.34,SE,137,6.0,6.0,69,0.00,BKN,FEW,0.00,WeatherDisplay:10.37,2015-07-07 16:33:00,
2015-07-07 12:38:00,82.0,70.0,30.34,ESE,117,3.5,3.5,67,0.00,BKN,FEW,0.00,WeatherDisplay:10.37,2015-07-07 16:38:00,
2015-07-07 12:43:00,82.1,70.5,30.34,SSE,151,3.5,3.5,68,0.00,BKN,FEW,0.00,WeatherDisplay:10.37,2015-07-07 16:43:00,
2015-07-07 12:48:00,81.6,70.4,30.33,SSE,152,5.8,5.8,69,0.00,BKN,FEW,0.00,WeatherDisplay:10.37,2015-07-07 16:48:00,
2015-07-07 12:52:00,82.1,70.5,30.34,SSE,162,1.0,8.0,68,0.00,BKN,FEW,0.00,WeatherDisplay:10.37,2015-07-07 16:52:00,
2015-07-07 12:56:00,82.7,70.6,30.33,SE,127,5.8,5.8,67,0.00,BKN,FEW,0.00,WeatherDisplay:10.37,2015-07-07 16:56:00,
2015-07-07 13:01:00,81.2,69.6,30.33,ESE,112,3.5,3.5,68,0.00,BKN,FEW,0.00,WeatherDisplay:10.37,2015-07-07 17:01:00,
2015-07-07 13:06:00,80.3,70.0,30.33,ESE,110,3.5,3.5,71,0.00,SCT,FEW,0.00,WeatherDisplay:10.37,2015-07-07 17:06:00,
2015-07-07 13:11:00,79.7,69.9,30.33,SE,144,3.0,3.0,72,0.00,SCT,FEW,0.00,WeatherDisplay:10.37,2015-07-07 17:11:00,
2015-07-07 13:16:00,79.4,70.0,30.33,SSE,151,3.5,3.5,73,0.00,SCT,FEW,0.00,WeatherDisplay:10.37,2015-07-07 17:16:00,
2015-07-07 13:19:00,79.2,69.4,30.33,SSE,166,6.9,6.9,72,0.00,SCT,FEW,0.00,WeatherDisplay:10.37,2015-07-07 17:19:00,
2015-07-07 13:24:00,80.0,70.2,30.33,SE,146,3.5,3.5,72,0.00,SCT,FEW,0.00,WeatherDisplay:10.37,2015-07-07 17:24:00,
2015-07-07 13:29:00,80.8,70.5,30.33,SE,133,3.5,3.5,71,0.00,SCT,FEW,0.00,WeatherDisplay:10.37,2015-07-07 17:29:00,
2015-07-07 13:39:00,80.1,69.4,30.32,ESE,111,5.8,5.8,70,0.00,BKN,FEW,0.00,WeatherDisplay:10.37,2015-07-07 17:39:00,
2015-07-07 13:44:00,80.2,69.9,30.32,WNW,303,3.5,3.5,71,0.00,BKN,FEW,0.00,WeatherDisplay:10.37,2015-07-07 17:44:00,
2015-07-07 13:49:00,80.5,69.8,30.32,SE,141,3.5,3.5,70,0.00,BKN,FEW,0.00,WeatherDisplay:10.37,2015-07-07 17:49:00,
2015-07-07 13:54:00,81.0,70.3,30.32,SSE,154,2.3,2.3,70,0.00,BKN,FEW,0.00,WeatherDisplay:10.37,2015-07-07 17:54:00,
2015-07-07 13:59:00,81.0,70.3,30.32,SSE,151,6.0,6.0,70,0.00,BKN,FEW,0.00,WeatherDisplay:10.37,2015-07-07 17:59:00,
2015-07-07 14:04:00,80.9,70.6,30.32,SSW,200,8.1,8.1,71,0.00,OVC,FEW,0.00,WeatherDisplay:10.37,2015-07-07 18:04:00,
2015-07-07 14:09:00,81.5,70.8,30.31,SSW,204,5.8,5.8,70,0.00,OVC,FEW,0.00,WeatherDisplay:10.37,2015-07-07 18:09:00,
2015-07-07 14:14:00,81.9,70.7,30.31,SE,145,4.6,4.6,69,0.00,OVC,FEW,0.00,WeatherDisplay:10.37,2015-07-07 18:14:00,
2015-07-07 14:19:00,83.1,71.4,30.31,South,191,5.8,5.8,68,0.00,OVC,FEW,0.00,WeatherDisplay:10.37,2015-07-07 18:19:00,
2015-07-07 14:24:00,83.4,71.3,30.31,SSE,159,4.0,4.0,67,0.00,OVC,FEW,0.00,WeatherDisplay:10.37,2015-07-07 18:24:00,
2015-07-07 14:29:00,83.8,70.8,30.31,ESE,106,3.5,3.5,65,0.00,OVC,FEW,0.00,WeatherDisplay:10.37,2015-07-07 18:29:00,
2015-07-07 14:34:00,83.8,70.8,30.31,SE,143,4.6,4.6,65,0.00,OVC,FEW,0.00,WeatherDisplay:10.37,2015-07-07 18:34:00,